GEFSMW_con_maxscp_210.txt.gz
SCP
5 5 5 5 5 4 3 3 2 2 2 2 2 2 2 1 1 2 2 2 2 2 3 3 2 1 1 0 0 0 0 0 0 0 0 0 0 0 0 0 0 0 0
5 7 7 7 6 5 4 3 3 3 3 2 2 2 1 1 1 2 2 2 2 2 2 2 2 1 1 0 0 0 0 0 0 0 0 0 0 0 0 0 0 0 0
6 8 9 10 8 5 4 3 3 3 3 3 2 2 1 2 2 2 2 3 2 2 2 2 1 1 1 0 0 0 0 1 1 1 0 0 0 0 0 0 0 0 0
5 7 10 10 7 5 4 4 4 4 3 3 3 2 2 2 2 2 3 3 3 2 2 1 1 1 1 1 1 1 1 1 1 1 0 0 0 0 0 0 0 0 0
5 7 9 9 7 6 5 5 4 4 4 4 4 3 3 2 2 2 3 3 3 3 2 1 1 1 1 1 1 1 1 1 1 1 0 0 0 0 0 0 0 0 0
6 6 7 8 8 8 8 7 5 5 5 5 5 4 3 3 3 3 3 3 3 2 2 2 1 1 1 1 1 1 1 1 1 1 0 0 0 0 0 0 0 0 0
5 5 6 9 11 12 11 8 6 5 6 6 6 5 4 4 3 3 3 3 3 2 2 2 1 1 1 1 2 2 2 1 1 1 1 0 0 0 0 0 0 0 0
6 6 6 9 12 12 11 8 7 7 7 8 7 6 5 4 4 4 3 3 2 2 2 1 1 1 1 2 2 2 2 2 1 1 1 1 1 0 0 0 0 0 0
8 7 6 7 8 8 8 7 7 8 9 9 8 7 6 5 5 4 3 2 2 2 2 1 1 2 2 2 3 3 2 2 1 1 1 1 1 1 1 1 1 1 1
8 7 6 6 5 5 5 6 7 9 10 10 9 7 6 5 5 4 3 2 2 2 2 2 2 2 2 2 2 2 2 1 1 2 2 2 2 1 1 1 1 1 1
7 7 6 6 6 6 5 6 9 10 10 9 8 7 6 4 3 2 2 1 1 2 2 2 2 2 2 2 2 2 2 2 2 2 2 2 2 2 1 1 1 1 1
7 6 6 6 7 7 7 9 11 11 9 8 7 6 5 3 2 2 1 1 1 2 2 2 2 2 2 1 1 2 2 3 3 2 2 2 2 2 1 1 1 1 1
7 6 6 6 7 8 9 10 11 10 8 7 6 5 4 3 2 2 1 1 1 2 2 2 2 2 1 2 2 3 3 4 3 2 2 2 2 2 1 1 1 1 1
8 7 6 6 6 8 9 9 8 7 7 6 6 5 4 3 2 2 2 2 2 2 2 2 2 2 2 2 3 3 4 3 3 2 1 1 1 1 1 1 1 1 1
8 9 10 8 6 6 7 6 6 6 6 6 6 6 5 4 3 3 2 3 3 3 3 2 2 2 2 3 3 3 3 3 2 2 2 1 1 1 1 1 1 1 1
9 10 11 8 6 6 5 5 5 6 6 7 7 6 7 6 5 4 3 3 3 3 3 2 2 2 3 3 3 3 2 2 2 2 2 1 1 1 1 1 1 1 1
10 9 7 6 5 5 5 5 5 6 6 7 7 6 7 7 6 5 4 3 3 3 3 2 2 2 2 2 2 2 1 1 1 2 2 1 1 1 1 1 1 1 1
8 6 5 4 4 5 5 5 5 5 6 6 6 6 6 7 7 6 4 4 4 4 3 2 2 2 2 1 1 1 1 1 1 1 1 1 1 1 1 1 1 1 1
5 5 4 3 3 4 18 27 19 5 5 4 4 5 7 7 7 6 5 4 4 4 4 3 2 2 2 1 1 1 1 1 1 1 1 1 1 1 1 0 1 1 0
4 4 3 3 3 3 27 50 27 4 4 3 4 6 7 8 8 7 6 6 5 5 4 3 3 2 2 1 0 1 1 1 1 1 1 1 1 0 0 0 0 0 0
4 4 4 3 3 3 17 27 17 3 3 3 4 6 8 9 9 8 8 7 6 5 5 4 3 3 2 1 1 1 1 1 1 1 1 1 0 0 0 0 0 0 0
5 4 4 3 3 4 4 4 3 3 2 3 4 6 7 8 9 9 9 8 7 6 5 5 4 2 1 1 1 0 1 1 2 2 1 0 0 0 0 0 0 0 0
5 5 4 4 4 5 5 5 4 3 2 3 4 5 6 8 10 11 10 8 8 7 6 5 3 2 1 1 0 0 0 1 1 1 1 0 0 0 0 0 0 0 0
5 5 5 5 5 5 5 6 5 4 3 4 5 6 7 8 9 9 8 7 7 7 7 6 3 2 1 1 0 0 0 0 0 1 0 0 0 0 0 0 0 0 0
4 4 4 4 5 5 5 6 5 4 4 5 6 8 8 7 7 6 4 4 4 4 5 5 3 2 1 1 0 0 0 0 0 0 0 0 0 0 0 0 0 0 0
4 4 4 4 4 4 5 6 5 4 4 6 7 9 9 7 5 3 2 1 2 2 3 3 3 2 1 1 0 0 0 0 0 0 0 0 0 0 0 0 0 0 0

GEFSMW_con_maxscp_216.txt.gz
SCP
2 3 5 8 8 5 3 2 1 1 1 1 1 1 1 1 1 1 1 1 1 1 1 0 0 0 0 0 0 0 0 0 0 0 0 0 0 0 0 0 0 0 0
2 4 7 9 7 4 3 2 2 1 1 1 1 1 1 1 1 1 1 1 1 1 1 0 0 0 0 0 0 0 0 0 0 0 0 0 0 0 0 0 0 0 0
3 5 7 7 5 3 3 2 2 1 1 1 1 1 1 1 1 1 1 1 1 1 1 1 1 1 1 1 1 1 0 0 0 0 0 0 0 0 0 0 0 0 0
3 4 5 4 3 3 3 3 2 2 1 1 1 1 1 1 1 1 1 1 1 1 1 1 1 1 1 1 1 1 1 1 1 0 0 0 0 0 0 0 0 0 0
3 3 3 2 2 2 3 4 4 3 2 1 1 1 1 1 1 1 1 1 1 1 1 1 1 1 1 1 1 1 1 1 1 1 0 0 0 0 0 0 0 0 0
3 2 2 2 2 2 4 5 6 6 5 3 2 1 1 1 1 1 1 1 1 1 1 1 1 1 1 1 1 1 1 1 1 1 1 0 0 0 0 0 0 0 0
3 3 2 2 2 2 3 5 6 8 7 5 3 2 1 1 1 1 1 2 2 2 1 1 1 1 1 1 1 2 2 1 1 1 1 1 1 1 0 0 0 0 0
3 3 3 3 2 2 2 3 5 8 7 5 3 2 2 1 1 1 2 2 2 2 1 1 1 1 1 1 1 1 2 1 1 1 1 1 1 1 1 1 1 0 0
3 3 3 3 3 3 3 3 5 6 5 3 3 2 2 2 2 2 2 2 2 2 1 1 1 1 1 1 1 1 1 1 1 1 0 0 1 1 1 1 1 1 1
3 4 3 3 3 3 3 4 5 5 3 2 2 2 2 2 2 2 2 2 2 1 1 1 1 1 1 1 1 1 1 1 1 1 1 1 1 1 1 1 1 1 1
3 3 3 3 3 3 3 4 4 4 3 2 2 2 2 2 2 2 2 2 2 1 1 1 2 1 1 1 1 0 0 1 1 1 1 1 1 1 1 1 1 1 1
3 3 3 3 3 3 3 4 4 3 3 3 3 3 2 2 2 2 1 1 1 1 1 1 2 1 1 1 1 0 1 1 1 1 1 1 1 1 1 1 1 1 1
4 4 4 5 4 4 3 4 4 4 4 5 4 3 2 2 2 2 2 1 1 1 1 1 1 1 1 1 1 1 1 1 1 1 1 1 1 1 1 1 1 1 1
5 6 6 7 6 5 4 4 4 4 5 6 5 3 2 2 2 2 2 2 1 1 1 1 1 1 1 1 1 1 2 2 2 1 1 1 1 1 1 1 1 1 1
6 7 7 7 7 6 5 6 5 4 4 4 4 3 3 3 3 3 2 2 2 2 1 1 1 1 1 1 1 2 2 2 2 1 1 1 1 1 1 1 1 1 1
6 6 6 6 5 6 7 7 6 4 3 3 3 3 3 3 3 3 3 2 2 2 2 1 1 1 1 1 1 2 2 2 2 1 1 1 1 1 1 1 1 1 1
5 5 4 4 4 5 6 6 5 4 3 3 3 4 3 3 2 2 2 2 2 2 2 2 1 1 1 1 1 1 1 1 1 1 1 1 1 1 1 1 1 1 1
4 4 4 3 3 3 4 4 4 4 3 3 4 4 3 3 2 2 2 2 2 2 2 2 1 1 1 1 1 1 1 1 1 1 1 1 1 1 1 1 1 1 1
4 4 3 3 2 2 2 3 4 4 4 4 4 4 3 3 2 2 3 3 3 3 3 2 2 2 2 1 1 0 1 1 1 1 1 1 1 0 1 1 1 1 1
4 4 3 3 2 2 2 3 3 4 3 3 3 3 3 3 3 3 4 4 4 4 4 3 3 3 3 2 1 1 1 1 1 1 1 1 1 0 0 1 1 0 0
3 3 3 2 2 2 2 2 3 3 2 2 3 3 2 2 3 4 5 6 6 5 5 4 3 3 3 2 1 1 1 2 2 2 1 1 0 0 0 0 0 0 0
4 3 3 3 3 2 2 2 2 2 2 2 2 2 2 2 3 5 6 7 7 7 6 5 4 3 3 2 1 1 1 2 2 2 1 0 0 0 0 0 0 0 0
5 5 5 4 4 3 3 2 3 3 3 2 2 2 2 3 4 6 7 8 9 8 7 6 5 4 4 2 1 0 0 1 1 1 1 0 0 0 0 0 0 0 0
6 6 6 5 5 4 3 3 3 3 3 2 2 2 3 3 4 6 8 9 9 9 8 7 6 6 5 3 1 1 0 0 0 0 0 0 0 0 0 0 0 0 0
7 6 6 6 5 4 3 3 3 3 3 2 2 3 3 4 4 6 6 7 7 7 7 6 6 6 6 4 2 1 0 0 0 0 0 0 0 0 0 0 0 0 0
7 7 6 6 5 4 3 3 3 4 3 3 3 3 4 4 4 5 4 4 4 3 4 4 5 6 7 4 2 0 0 0 0 0 0 0 0 0 0 0 0 0 0

GEFSMW_con_maxscp_222.txt.gz
SCP
1 2 4 5 5 4 3 3 3 3 3 3 2 2 2 2 2 2 1 1 1 1 2 2 1 1 1 1 0 0 0 0 1 1 1 1 1 1 1 1 1 1 1
2 2 3 4 4 3 3 3 3 3 3 3 3 2 2 2 2 2 2 2 2 2 2 2 2 1 1 1 0 0 0 0 1 1 1 1 1 1 1 1 1 1 1
2 2 3 3 3 2 2 3 3 3 3 3 3 3 3 3 2 2 3 4 4 3 3 3 2 1 1 1 1 0 1 1 1 2 2 2 2 2 1 1 1 1 1
2 3 3 3 2 2 3 3 4 4 3 3 4 4 4 4 3 3 6 8 7 5 4 4 2 1 1 1 1 1 1 1 2 2 3 3 2 2 1 1 1 1 1
3 3 3 3 3 3 4 4 4 4 4 5 5 5 5 5 4 4 6 10 9 6 4 4 2 1 1 1 1 1 1 2 2 3 3 3 2 2 1 1 1 1 1
3 3 3 3 4 4 4 4 3 4 5 5 6 7 7 7 5 4 5 7 8 5 4 3 2 2 2 1 2 2 2 2 2 2 2 2 2 1 1 1 1 1 1
4 4 3 4 4 4 3 3 3 4 4 5 6 8 9 8 6 4 3 4 4 3 3 3 2 2 2 2 2 2 2 2 2 2 2 2 2 1 1 1 1 1 1
6 5 4 3 3 3 3 3 3 4 4 5 6 7 7 7 5 3 3 3 3 2 2 2 2 2 2 2 2 2 2 2 2 2 2 2 2 2 2 2 2 1 1
5 4 3 3 2 2 3 3 4 4 3 4 5 5 5 5 3 2 2 2 2 2 2 2 2 2 2 2 2 2 2 2 2 2 2 2 2 3 3 4 3 2 1
4 3 3 2 2 2 3 3 3 3 3 4 4 4 4 3 3 2 2 2 2 2 2 2 2 2 2 2 2 2 2 2 2 2 2 3 3 3 4 5 4 3 2
3 3 2 2 3 3 3 3 3 3 3 4 4 3 3 3 3 3 2 2 2 2 2 2 2 2 2 2 2 2 2 2 2 2 2 3 3 3 4 4 3 3 2
3 3 2 3 3 4 4 4 3 3 3 3 3 3 3 3 3 3 3 3 3 2 2 2 2 2 2 2 2 1 1 2 2 2 2 2 3 2 2 2 2 2 2
2 3 3 4 4 4 4 4 4 3 3 3 3 3 4 4 4 4 4 4 3 2 2 2 2 2 2 2 1 1 1 2 2 2 2 3 3 2 2 2 2 2 2
3 3 4 5 5 5 4 4 4 4 3 4 4 4 4 4 4 4 4 4 3 3 3 3 2 2 2 2 2 2 2 2 2 2 3 3 3 2 2 2 2 2 2
3 4 5 6 6 6 6 6 5 5 4 4 4 4 4 4 4 4 4 3 3 3 3 2 2 2 2 2 2 2 2 2 2 2 3 2 2 2 2 1 1 1 1
4 5 6 7 7 7 7 7 6 5 4 4 4 5 5 5 5 5 4 3 3 3 2 2 2 2 2 2 2 2 3 3 2 2 2 2 2 2 1 1 1 1 1
5 6 6 7 7 7 7 7 6 5 5 5 5 6 6 6 5 4 4 3 3 3 2 2 2 2 2 2 2 2 3 3 2 2 2 2 2 2 2 2 1 1 1
6 6 6 7 7 7 7 7 7 6 6 6 7 7 6 6 5 4 3 3 3 3 3 3 3 3 3 2 1 2 3 3 2 2 2 2 2 2 2 2 2 2 2
7 6 6 6 6 7 8 8 8 8 8 7 7 6 6 5 4 3 3 3 3 3 3 4 5 6 6 3 1 1 3 3 2 2 1 1 1 1 1 2 2 2 2
6 5 5 5 6 7 8 8 8 8 8 7 6 5 4 4 4 3 4 4 4 4 4 5 7 8 8 4 1 2 3 3 2 1 1 1 1 1 1 1 2 2 2
5 5 5 5 7 8 9 8 8 7 7 6 6 5 4 3 4 5 5 6 6 5 5 6 8 10 9 5 1 1 3 3 2 1 1 1 0 0 0 1 1 1 1
6 5 5 7 8 9 10 10 8 7 6 6 5 5 4 3 4 5 6 7 7 7 7 8 9 11 9 5 2 1 1 1 1 2 1 1 0 0 0 0 0 0 0
7 7 6 7 8 10 12 12 9 7 6 5 5 4 4 4 4 5 6 7 8 8 8 9 11 11 8 4 2 1 0 0 1 1 1 1 0 0 0 0 0 0 0
7 7 7 7 8 9 10 9 8 6 6 5 4 4 4 4 4 5 5 6 7 7 8 9 10 10 7 3 2 1 1 1 1 1 1 1 0 0 0 0 0 0 0
6 6 6 6 7 7 7 7 6 6 6 5 4 3 3 4 4 4 4 4 5 5 5 6 7 7 5 3 1 1 1 1 1 2 2 2 1 1 1 1 1 1 1
6 5 5 6 6 6 6 6 5 5 5 5 4 3 4 4 4 3 3 3 3 2 2 3 4 5 4 2 1 1 1 1 1 2 3 2 2 1 1 1 1 1 1

GEFSMW_con_maxscp_228.txt.gz
SCP
4 4 6 7 8 7 7 7 7 7 6 5 4 4 4 4 4 4 5 5 5 6 8 10 10 7 4 2 2 2 1 1 1 1 1 1 1 1 1 1 1 1 2
4 5 6 7 7 8 7 7 7 6 5 5 4 4 4 4 4 4 5 5 5 6 7 10 10 8 4 3 2 2 2 2 2 2 1 2 2 2 1 1 1 2 2
5 7 7 7 8 8 7 7 7 6 5 4 4 4 4 4 4 5 6 6 7 7 7 9 10 8 5 3 3 2 2 2 2 2 2 2 2 2 1 1 1 1 1
7 8 8 8 8 7 7 8 8 6 5 5 5 4 4 4 5 5 6 7 8 7 7 9 10 8 5 3 3 3 3 3 2 2 2 2 2 2 1 1 1 1 1
8 8 8 8 8 7 7 8 8 7 7 6 6 5 5 5 5 5 6 8 8 8 8 8 9 8 5 3 3 3 3 3 2 2 2 2 2 1 1 1 1 1 1
8 9 9 9 8 7 7 8 8 9 8 7 6 6 5 5 5 5 6 8 8 8 8 7 7 7 5 4 4 4 4 3 2 2 2 1 1 1 1 1 1 1 1
10 11 11 10 8 7 7 8 9 10 8 6 5 5 5 4 4 5 6 7 8 8 7 7 6 6 5 4 4 4 4 3 3 2 2 1 1 1 1 1 1 1 1
11 11 10 9 8 7 7 8 10 9 7 5 4 4 4 3 4 5 6 6 6 6 7 7 6 6 5 4 4 4 4 3 3 2 2 2 1 1 1 1 1 1 1
9 8 7 6 6 7 7 8 9 7 5 4 4 3 3 3 4 5 6 6 5 6 6 6 6 6 5 4 3 3 4 3 3 2 2 2 2 2 1 1 1 1 1
6 6 5 5 5 6 7 8 8 6 5 4 4 3 3 4 4 5 6 5 5 6 6 6 7 6 5 4 3 3 3 3 3 2 2 2 2 2 2 2 1 1 1
4 4 5 5 4 5 6 7 7 6 5 5 4 3 3 4 5 5 5 5 5 6 7 7 7 6 4 3 3 2 2 2 2 2 2 2 2 2 3 2 2 2 2
4 5 5 5 5 5 6 7 7 6 5 5 5 4 4 5 5 5 5 5 5 6 6 6 6 5 4 3 3 2 2 2 2 2 2 2 2 3 3 3 2 2 2
6 6 7 8 8 7 7 7 6 5 5 5 5 5 5 6 6 6 6 7 7 6 6 6 5 4 3 3 3 2 2 2 3 3 2 2 2 2 3 2 2 2 2
8 9 10 11 9 8 8 7 6 5 5 5 6 6 6 7 8 8 8 8 8 7 6 6 4 4 3 3 2 3 3 3 4 4 4 3 2 2 2 2 2 2 2
10 12 12 11 9 8 8 8 6 6 6 7 7 6 6 7 8 8 8 9 9 8 7 5 4 3 3 2 2 3 3 4 6 6 5 3 2 1 1 1 2 2 2
13 15 16 12 9 8 8 9 8 8 9 8 7 6 6 7 7 7 7 8 8 8 6 5 4 3 3 2 2 3 5 7 8 9 7 3 1 1 1 1 1 1 1
16 20 21 16 11 9 9 9 9 10 10 9 7 6 7 7 7 7 7 8 7 6 5 5 4 4 3 3 3 3 6 10 12 12 9 4 2 1 2 2 1 1 1
18 20 21 17 11 9 9 9 9 10 10 9 7 7 8 8 8 8 8 7 6 5 5 4 4 4 4 4 3 3 7 12 15 15 10 4 2 1 2 3 3 3 3
16 16 14 12 10 9 10 10 10 10 9 8 7 8 9 9 8 8 8 7 6 6 5 5 4 5 5 5 4 4 8 13 16 15 9 4 2 2 2 3 4 5 5
14 12 9 8 9 10 11 11 11 10 9 8 8 9 10 9 8 7 7 6 6 6 5 5 5 5 6 5 3 4 9 13 14 11 6 3 1 1 2 3 4 6 7
14 12 9 9 9 10 11 11 10 10 10 9 10 9 9 8 7 7 6 6 6 5 5 5 5 6 6 5 3 3 7 11 11 7 4 2 2 1 1 2 4 6 7
13 12 10 10 9 8 8 8 8 9 10 10 10 9 8 7 6 6 6 7 6 6 5 5 6 7 7 5 3 2 3 6 6 4 3 2 2 1 1 1 3 4 5
11 11 10 9 8 6 6 6 7 8 9 9 9 8 7 6 5 5 6 6 6 6 6 6 8 10 10 6 3 2 1 2 2 2 2 2 1 1 0 1 2 3 5
9 9 8 7 5 5 5 6 6 7 8 8 7 7 6 5 5 5 5 5 5 5 6 7 8 10 10 7 4 3 2 2 1 2 2 1 1 1 1 1 2 4 6
8 7 6 5 5 4 5 6 7 7 8 7 6 5 4 4 4 4 4 4 4 4 5 6 7 6 5 5 5 4 4 3 2 2 2 2 2 2 2 3 3 5 7
7 7 6 6 5 5 5 6 7 8 7 7 5 4 4 4 4 4 3 2 2 2 3 5 6 4 3 3 3 4 4 4 2 2 2 2 3 3 3 4 5 6 6

GEFSMW_con_maxscp_234.txt.gz
SCP
3 3 3 4 4 4 3 3 3 3 3 3 2 2 2 1 1 1 2 2 2 3 3 3 2 2 2 1 1 1 1 1 0 0 0 0 0 0 0 0 0 0 0
3 4 4 5 5 5 4 4 4 3 3 2 2 2 1 1 1 1 2 2 3 3 4 4 3 3 2 2 1 1 1 1 1 1 0 0 0 0 0 0 0 0 0
4 5 6 7 7 6 5 5 4 3 3 3 3 2 2 2 2 2 2 2 3 4 5 5 5 4 3 2 2 1 1 1 1 1 1 0 0 0 0 0 0 0 0
5 6 7 8 8 6 6 5 4 3 3 4 4 4 3 3 2 2 2 3 3 4 5 6 6 5 4 2 2 1 1 1 1 1 1 1 0 0 0 0 0 0 0
5 6 8 9 8 7 5 5 4 4 4 5 5 4 4 3 3 3 3 3 3 3 4 5 6 5 4 2 2 2 2 2 2 1 1 1 0 0 0 0 0 0 0
6 7 9 9 8 6 5 4 5 6 6 5 5 5 4 3 3 3 3 2 2 2 3 4 5 5 4 3 2 2 2 2 2 1 1 1 1 0 0 1 1 0 0
8 8 8 8 6 5 4 5 7 7 7 6 5 4 4 3 3 2 2 2 2 2 2 3 4 4 4 3 2 2 1 1 1 1 1 1 1 1 1 1 1 1 1
8 7 7 6 5 5 5 7 8 8 7 5 4 4 3 3 3 2 2 2 2 2 2 3 4 4 4 3 2 1 1 1 1 1 1 1 1 1 1 1 1 1 1
7 6 6 6 6 6 6 7 8 7 6 5 4 3 3 3 3 2 2 2 2 2 2 3 3 3 3 2 2 1 1 1 1 1 1 1 1 1 1 1 1 1 1
6 6 6 6 6 7 7 7 7 6 6 5 5 3 3 3 2 2 1 1 2 2 2 3 3 3 2 2 2 1 1 1 1 1 1 1 1 1 1 1 1 1 1
7 6 6 6 7 7 7 7 7 7 7 6 5 4 3 3 2 2 2 2 2 2 2 2 2 2 2 2 1 1 1 1 1 1 1 1 1 1 1 1 1 1 1
9 8 7 7 8 8 8 9 10 10 9 7 5 4 4 4 3 3 2 2 2 2 2 2 2 2 2 1 1 1 1 1 1 1 1 1 1 1 1 1 1 1 1
9 8 7 8 8 9 10 12 14 14 11 8 6 5 5 5 4 3 3 3 3 2 2 2 2 2 1 1 1 1 1 1 1 2 2 1 1 1 1 1 1 1 1
8 8 7 7 8 11 14 17 18 16 12 9 8 7 6 5 4 3 3 3 3 3 3 2 2 2 2 1 2 2 2 2 2 2 2 2 1 1 1 1 1 1 1
10 10 10 10 11 14 16 18 18 15 11 9 7 7 5 5 4 3 3 3 3 3 3 3 3 2 2 2 2 2 2 2 2 2 3 3 2 1 1 0 0 0 0
13 14 14 14 16 17 16 15 13 11 8 7 6 6 6 5 5 4 3 3 3 3 2 3 3 2 2 2 2 2 2 2 2 3 4 3 2 1 1 1 0 0 0
16 15 14 14 14 15 13 11 9 8 6 6 7 8 8 7 7 6 5 4 3 2 2 2 2 2 2 2 2 2 2 2 3 4 5 4 2 1 1 1 1 1 0
16 14 11 10 9 8 8 8 7 7 7 7 9 11 11 10 9 7 6 4 3 2 2 2 2 2 2 2 2 2 3 3 3 4 5 4 2 2 2 1 1 1 1
14 12 10 8 7 6 6 6 7 8 8 9 11 12 22 28 19 8 6 4 3 2 2 2 2 2 2 3 3 3 3 4 4 4 4 3 2 2 2 2 2 1 1
12 11 10 9 8 7 7 8 10 11 10 10 11 13 29 43 25 7 5 4 3 2 2 2 2 2 2 2 2 3 4 4 4 4 3 3 2 2 2 2 2 2 2
10 10 10 9 7 7 7 9 11 12 11 11 11 13 21 26 17 7 6 5 4 4 3 3 3 2 2 2 1 2 3 4 4 4 3 2 2 2 1 1 2 2 2
9 9 8 7 6 6 7 8 9 10 11 10 10 10 9 8 6 6 6 6 6 6 5 4 4 3 2 1 1 1 1 2 3 3 2 2 2 1 1 1 1 1 1
7 7 7 6 5 5 5 5 6 7 8 8 7 7 6 6 5 5 6 6 7 7 6 5 5 4 3 2 1 1 1 1 1 1 1 1 1 1 1 1 1 1 1
6 6 6 5 5 4 4 4 4 4 5 5 5 5 4 4 4 5 5 5 6 6 6 5 5 5 4 3 3 2 2 1 1 1 1 1 0 0 0 1 1 1 2
5 5 6 6 5 5 4 4 3 4 4 5 4 4 3 3 3 3 3 3 3 3 3 4 4 4 4 4 4 4 4 4 3 2 2 2 2 1 1 1 1 2 2
4 5 6 7 6 6 5 4 4 4 5 5 5 4 3 2 2 2 1 1 1 1 1 2 2 3 3 3 3 5 6 6 4 3 3 3 3 2 2 1 1 2 2

GEFSMW_con_maxscp_240.txt.gz
SCP
2 3 4 4 3 2 1 1 1 1 1 1 1 1 1 1 1 1 1 1 1 1 1 1 2 2 2 2 1 1 0 0 0 0 0 0 0 0 0 0 0 0 0
3 3 4 3 2 2 1 1 1 1 1 1 1 1 1 1 1 1 1 1 1 1 2 2 2 2 2 2 2 1 1 1 1 0 0 0 0 0 0 0 0 0 0
3 3 3 3 2 2 1 1 1 1 1 1 1 1 1 1 1 1 1 1 1 2 2 2 2 2 2 2 2 2 1 1 1 0 0 0 0 0 0 0 0 0 0
3 3 3 3 2 2 1 1 1 1 1 1 1 1 1 1 1 1 1 1 2 2 2 2 2 2 2 2 2 2 2 1 1 0 0 0 0 0 0 0 0 0 0
3 3 3 3 3 2 2 2 1 1 1 1 1 2 2 2 2 1 1 1 2 2 2 2 1 1 2 2 2 2 2 1 1 0 0 0 0 0 0 0 0 0 1
3 3 3 4 4 3 2 1 1 1 1 2 2 2 2 2 2 2 1 1 1 1 1 1 1 1 1 1 2 2 2 1 1 1 1 1 1 0 0 0 0 1 1
4 5 5 5 4 3 2 1 1 1 2 2 2 2 2 2 2 2 1 1 1 1 1 1 1 1 1 1 1 2 2 1 1 1 1 1 1 0 0 0 1 1 1
5 6 6 5 3 2 1 1 2 2 2 2 2 2 3 3 2 2 1 1 1 1 1 1 1 1 1 1 1 1 1 1 1 0 1 1 1 1 1 1 1 1 1
4 5 5 4 3 2 2 2 2 3 3 3 3 3 3 2 2 2 2 1 1 1 1 1 1 1 1 1 1 1 1 0 0 0 0 1 1 1 1 1 1 1 1
3 3 3 3 3 3 2 3 4 4 4 3 3 2 2 2 2 2 2 2 1 1 1 1 1 1 1 1 1 1 0 0 0 0 1 1 1 1 1 1 1 2 2
3 3 4 4 4 4 3 4 5 5 4 3 2 2 2 2 2 2 2 2 2 1 1 1 1 1 1 1 1 1 0 1 1 1 1 1 1 1 1 1 1 2 2
4 4 5 5 5 5 5 5 5 5 4 3 2 2 3 3 3 3 3 2 2 1 1 1 2 1 1 1 1 1 1 1 1 2 2 2 1 1 1 1 1 1 1
6 6 5 5 5 6 6 6 5 5 4 4 3 3 4 4 4 4 3 2 2 2 2 2 2 1 1 1 1 1 1 1 2 2 2 2 2 2 2 1 1 1 1
6 6 5 5 5 6 7 7 6 5 4 4 4 4 4 4 4 4 3 2 2 2 2 2 1 1 1 1 1 1 1 1 2 2 2 2 2 3 3 2 1 1 1
6 6 5 5 5 6 7 8 7 5 4 4 4 3 3 3 4 4 3 2 2 2 1 1 1 1 1 1 1 1 1 1 1 1 2 2 3 3 3 2 1 1 1
7 7 6 6 6 6 7 8 8 6 5 4 4 4 3 3 3 4 4 3 2 2 1 1 1 1 1 1 1 1 1 1 1 1 2 2 3 3 2 2 1 1 1
8 8 9 8 7 7 8 9 9 7 6 5 5 5 5 4 4 4 4 4 3 2 2 2 2 1 1 1 1 1 1 1 1 2 2 2 2 2 2 1 1 1 1
7 9 10 10 9 9 10 10 10 9 8 8 7 7 6 5 4 5 5 4 4 3 2 2 2 2 1 1 1 1 1 1 1 2 2 3 2 1 1 1 1 1 1
6 9 10 10 10 11 11 12 11 12 11 10 8 7 6 5 5 5 6 6 4 3 3 2 2 2 2 1 1 1 1 1 1 2 2 2 2 1 0 1 1 1 1
6 8 10 10 10 11 12 13 14 16 15 11 8 7 6 6 6 7 7 6 5 4 3 3 3 3 3 2 1 1 1 1 2 2 2 1 1 0 0 0 1 1 1
6 7 8 8 8 10 12 13 14 16 14 10 8 7 7 7 7 8 8 6 6 5 4 4 3 3 3 3 2 2 1 1 1 1 1 1 0 0 0 0 0 1 1
5 5 6 6 6 7 8 8 9 10 8 7 6 6 7 8 9 8 7 6 6 6 5 4 4 4 4 3 2 1 1 1 1 1 1 1 0 0 0 0 0 0 0
5 5 5 5 4 4 4 4 4 4 4 3 5 7 9 9 9 7 6 6 6 6 6 5 5 5 4 3 2 1 1 0 1 1 1 0 0 0 0 0 0 0 0
6 5 5 5 4 4 4 3 3 2 3 3 5 8 10 8 6 5 4 5 5 5 5 5 5 5 4 4 3 2 2 1 1 1 1 1 0 0 0 0 0 0 0
5 5 5 4 4 4 3 3 3 3 4 5 6 7 7 5 4 3 3 2 2 2 3 3 4 4 4 4 3 3 2 2 1 1 2 2 1 1 1 1 1 1 1
5 5 5 4 3 3 3 3 3 4 4 5 6 6 4 3 3 2 2 1 1 1 1 2 2 3 3 2 2 2 2 1 1 2 2 2 2 2 2 2 1 1 1

GEFSMW_con_maxscp_246.txt.gz
SCP
2 3 3 4 3 2 2 2 2 2 2 2 2 2 1 1 2 2 2 1 2 2 2 2 3 3 3 3 3 3 3 2 2 2 2 1 1 1 1 2 1 1 1
2 3 3 3 3 2 2 2 2 3 3 3 2 2 2 2 2 2 2 2 2 2 2 3 3 3 3 3 3 3 2 2 2 2 2 1 2 2 1 1 1 1 1
2 2 2 2 2 2 2 2 3 4 4 3 2 2 2 2 2 2 2 2 2 2 2 3 3 3 2 2 2 2 2 2 2 2 2 1 2 2 2 2 1 1 1
1 1 2 2 2 3 3 3 4 4 4 4 3 2 2 2 2 2 3 3 3 3 3 3 2 2 2 2 2 1 2 2 2 2 2 1 2 2 2 2 1 1 1
1 1 2 3 4 5 6 6 4 4 4 3 3 3 2 2 2 3 3 3 3 2 2 2 2 2 1 1 1 1 1 2 2 2 2 1 2 2 2 2 2 1 1
2 2 4 7 8 8 7 6 4 4 4 4 3 3 3 3 3 3 3 3 2 3 4 4 4 3 2 1 1 1 1 2 2 2 2 1 1 2 2 2 2 1 1
2 4 6 8 8 7 5 4 4 4 4 5 5 6 6 5 5 4 4 3 3 4 6 6 6 4 2 1 1 1 1 2 2 2 2 1 1 1 2 2 1 1 1
3 4 5 5 5 4 3 3 4 5 6 7 8 9 9 8 6 4 4 5 5 5 5 5 5 3 2 2 2 2 2 2 2 2 1 1 1 1 1 1 1 1 1
3 3 3 3 3 3 3 3 4 6 7 9 10 11 11 9 7 5 4 5 6 4 3 3 3 2 2 2 3 3 4 5 4 2 1 1 1 1 1 2 2 2 2
3 3 2 3 3 4 4 4 5 7 8 9 9 9 8 8 7 5 4 4 5 3 3 3 3 3 2 3 3 4 5 6 4 2 2 1 2 2 2 2 2 2 2
3 3 3 3 3 4 5 5 6 7 7 6 6 5 4 4 4 3 3 3 4 3 4 4 4 3 3 2 3 3 5 5 3 2 1 2 2 2 2 2 3 3 3
3 3 4 4 4 4 5 5 5 6 5 4 4 3 2 2 2 2 2 3 4 4 5 5 4 3 3 2 2 3 3 3 2 1 1 2 2 3 3 3 3 4 5
4 5 6 6 5 5 4 4 5 5 5 4 4 3 2 2 2 2 2 3 4 5 6 6 5 4 3 2 2 3 3 2 2 1 2 2 3 4 4 4 4 6 6
6 7 9 8 7 6 5 5 6 6 5 5 5 5 4 3 3 3 3 4 5 6 8 8 6 5 4 4 3 3 3 2 1 1 2 2 3 4 4 4 5 7 8
6 8 10 10 9 7 6 6 6 6 5 5 6 7 6 5 5 5 4 4 5 6 8 9 8 6 6 5 4 3 3 2 1 1 2 2 3 3 3 4 5 6 8
5 7 10 11 10 8 7 7 8 7 5 4 5 6 6 6 6 6 5 4 4 4 6 7 8 7 7 5 4 3 2 2 2 2 2 2 2 3 3 3 3 4 5
4 6 8 10 9 8 8 10 10 8 6 5 5 5 5 6 6 5 5 5 4 4 4 5 7 8 7 4 2 2 2 2 2 2 2 2 3 3 3 3 3 2 2
3 5 7 8 8 8 9 10 10 8 7 6 6 6 7 7 6 5 5 5 4 4 4 5 6 7 5 3 1 1 2 2 3 3 3 3 3 3 4 4 3 2 2
4 5 6 7 7 8 9 9 9 8 7 7 8 8 8 8 7 6 6 6 5 5 5 5 6 5 4 3 1 1 3 4 4 4 4 4 3 3 3 4 4 3 2
4 5 6 7 7 7 8 7 7 7 7 8 9 9 9 9 8 7 7 7 7 6 6 6 6 5 5 4 2 2 3 5 5 5 5 4 3 2 2 3 4 3 2
4 5 6 8 8 7 7 6 6 6 7 9 10 11 12 11 10 9 9 9 8 7 7 7 7 7 8 6 3 2 3 5 6 6 5 4 2 1 1 2 2 2 1
4 5 7 8 8 7 7 7 7 9 10 12 13 14 14 12 10 10 10 10 10 9 8 8 8 9 11 10 6 2 2 3 5 6 5 3 2 1 0 1 1 1 1
5 6 8 9 9 8 8 9 11 14 15 16 16 17 15 13 11 11 11 11 10 9 8 8 9 11 14 13 8 3 1 2 4 5 4 2 1 0 0 0 0 0 1
6 7 8 9 9 9 9 11 14 16 17 17 17 16 15 14 13 12 12 11 10 9 8 8 9 11 13 13 9 5 3 3 4 5 3 2 1 1 1 1 1 1 1
8 8 8 8 9 9 11 12 13 13 13 14 14 13 13 13 13 12 12 10 8 7 7 8 8 9 9 9 7 5 5 5 5 5 4 3 2 2 2 2 2 2 2
10 10 9 9 9 10 11 11 10 9 10 11 11 10 11 11 11 11 10 8 6 5 6 7 7 7 6 5 4 4 4 4 5 5 4 3 3 2 2 3 3 2 2

GEFSMW_con_maxscp_252.txt.gz
SCP
4 4 4 3 3 4 6 7 7 6 6 5 5 5 4 4 4 6 7 6 5 5 4 5 5 4 4 4 4 4 4 4 4 4 4 3 3 3 4 3 2 2 2
4 4 4 3 3 4 6 7 7 7 7 7 7 6 5 5 5 6 7 7 6 6 5 5 5 4 4 4 4 4 4 4 5 4 4 3 2 3 3 3 2 2 2
3 4 4 4 4 5 5 7 8 8 9 9 9 8 7 6 6 7 10 10 9 8 7 6 5 4 4 4 4 4 4 5 5 5 5 4 3 2 3 3 2 2 2
4 4 4 4 5 6 6 7 9 11 11 11 10 10 9 7 7 9 12 12 11 9 7 5 5 5 4 4 4 4 4 5 6 6 6 5 4 3 3 2 3 3 3
4 4 4 4 5 6 7 9 12 14 14 12 11 10 8 8 8 11 12 11 10 8 7 6 7 7 6 5 4 4 5 6 6 7 7 5 4 3 2 2 2 3 3
5 6 6 6 8 10 11 13 17 18 15 11 9 8 7 8 10 11 10 9 8 9 9 8 7 7 6 6 4 4 5 5 6 7 7 6 4 3 2 2 2 2 2
6 6 7 9 12 14 14 16 19 18 13 10 9 8 7 8 10 10 9 9 9 10 10 8 6 5 6 5 4 4 5 5 5 6 6 6 4 3 2 2 2 2 2
6 7 8 9 11 12 12 13 15 14 11 10 10 9 8 8 9 10 10 10 9 8 8 6 4 5 4 4 4 5 5 5 5 5 6 6 5 4 3 3 2 2 2
6 6 7 7 7 8 9 9 10 10 9 10 11 9 8 8 9 10 11 10 8 7 6 5 4 4 4 4 4 5 4 4 5 5 6 6 6 5 4 4 3 2 2
4 5 6 7 7 7 8 9 9 10 10 9 10 9 8 8 9 9 9 8 8 7 6 5 4 3 3 4 5 5 4 3 4 5 5 6 6 5 4 4 3 3 3
3 4 6 8 8 8 8 8 9 10 10 10 10 9 8 8 8 8 8 8 8 8 8 7 5 4 4 4 4 4 3 3 4 5 5 5 6 5 4 4 4 4 4
4 5 7 9 10 9 9 9 9 10 11 11 11 10 9 9 8 8 8 8 9 9 9 8 6 5 5 5 4 4 3 3 4 4 4 5 5 5 4 4 4 5 5
6 7 10 11 12 11 11 10 10 10 10 10 10 9 9 9 9 8 8 8 9 10 10 9 8 7 6 5 5 4 3 3 4 4 4 5 5 5 4 4 4 5 5
7 9 12 15 15 14 14 12 11 10 10 10 9 9 9 9 8 8 8 8 9 10 10 10 9 8 7 6 5 5 4 4 3 4 4 4 5 4 4 4 4 5 6
8 10 13 17 19 18 17 15 12 10 10 11 11 9 8 8 7 7 8 9 10 10 11 10 10 9 8 6 6 6 5 4 4 4 4 4 4 4 3 3 4 5 5
9 10 13 17 21 21 19 16 13 12 12 12 11 9 8 8 7 7 8 10 11 12 11 11 10 9 8 6 5 6 6 6 5 5 5 4 4 4 3 3 3 3 4
9 10 12 15 20 23 20 15 12 11 11 11 10 9 9 9 8 8 9 11 12 13 12 12 11 10 7 4 4 5 6 6 6 5 5 4 4 4 4 3 3 3 2
7 8 10 13 18 20 17 13 10 10 10 10 9 9 9 9 10 10 11 12 14 14 13 12 11 10 6 3 2 4 6 6 6 6 5 5 4 4 4 4 4 3 3
6 8 10 12 15 15 13 11 10 10 10 10 10 10 10 9 10 11 13 14 15 15 14 12 11 10 6 3 2 4 6 6 6 5 5 4 4 3 3 4 4 4 4
7 8 10 11 12 11 10 10 11 11 11 10 10 10 10 10 11 13 15 16 16 15 14 12 11 10 7 4 2 3 5 6 5 5 5 3 3 2 3 3 3 3 3
8 8 9 10 11 11 11 11 11 10 10 9 9 10 11 11 12 14 17 18 17 15 13 12 11 10 8 5 3 2 4 4 4 5 4 3 2 2 2 2 2 2 1
9 9 9 11 12 13 13 12 11 11 10 9 9 10 11 11 12 14 17 19 17 15 12 11 11 9 7 5 3 2 2 2 3 3 3 2 1 1 1 1 1 1 1
11 11 11 13 16 17 15 13 12 12 12 12 11 11 11 11 12 13 16 17 17 14 13 13 11 9 6 5 4 2 1 1 2 2 2 1 1 1 1 1 1 1 2
13 13 13 15 19 20 18 15 14 14 14 13 13 12 11 11 12 13 14 16 16 14 13 13 12 8 6 6 5 4 3 2 2 2 2 2 1 1 2 2 2 2 2
16 15 14 15 19 20 18 16 15 15 15 14 12 11 10 11 12 13 13 13 13 13 12 12 11 8 7 6 6 5 5 4 3 3 4 4 3 3 3 4 3 3 3
18 17 15 16 18 19 17 16 16 16 15 13 11 9 9 12 13 13 12 11 11 10 10 10 10 8 7 5 5 5 6 5 4 5 6 7 5 4 4 5 4 4 3

GEFSMW_con_maxscp_258.txt.gz
SCP
1 1 2 2 2 2 3 4 3 3 4 5 5 4 3 2 1 1 2 2 2 2 3 3 3 3 2 2 1 1 1 1 1 1 0 0 0 0 0 0 0 0 0
2 2 2 2 2 3 4 4 4 3 4 5 5 5 4 2 1 1 2 2 2 2 3 3 3 3 2 2 1 1 1 1 1 1 0 0 0 0 0 0 0 0 0
4 3 3 3 3 4 4 5 4 3 4 4 5 6 5 3 2 1 2 2 3 3 3 4 4 3 3 2 1 1 1 1 1 1 0 0 0 0 0 0 0 0 0
5 4 3 4 4 5 6 5 5 4 3 3 4 6 6 5 3 2 2 3 3 4 4 4 4 3 3 2 1 1 1 1 1 1 1 1 0 0 0 0 0 0 0
6 5 4 5 6 7 7 7 6 4 3 3 4 5 6 6 4 3 3 3 3 4 4 4 3 3 2 2 1 1 1 1 1 1 1 1 1 1 1 1 1 0 0
7 7 7 8 8 7 8 7 6 4 4 4 4 4 5 5 3 3 3 3 3 3 3 3 2 2 1 1 1 1 1 1 1 1 1 1 1 1 1 1 1 1 0
8 9 10 9 7 7 7 6 5 4 4 5 5 5 5 4 3 2 2 2 2 2 2 2 1 1 1 1 1 1 1 1 1 1 1 0 0 0 1 1 1 1 0
7 8 9 8 6 5 5 5 4 4 5 6 6 6 5 3 3 2 2 2 1 1 1 1 1 1 1 1 1 1 1 1 1 1 1 0 0 0 1 1 1 1 1
6 7 6 6 5 5 4 4 5 5 6 6 6 5 4 3 2 2 2 1 1 1 1 1 1 1 1 1 2 2 1 1 1 1 1 0 0 0 1 1 1 1 1
6 6 6 6 5 4 4 5 5 5 5 5 4 3 3 2 2 2 2 2 2 1 1 1 1 1 1 1 2 1 1 1 1 1 1 0 0 0 1 1 1 1 1
7 7 7 6 5 5 5 5 5 5 4 3 3 2 2 2 2 3 3 3 3 2 2 2 2 2 2 2 2 1 1 1 1 1 1 1 1 1 1 1 1 1 2
8 8 7 6 6 6 6 6 6 5 4 3 3 2 2 2 3 3 4 4 4 4 3 3 3 2 2 2 2 2 2 2 1 1 1 1 1 1 1 1 1 2 2
9 8 7 7 7 7 7 7 7 6 5 4 3 3 3 3 3 3 4 4 4 4 4 4 4 3 3 3 3 3 3 3 3 2 2 2 2 2 2 2 2 2 2
12 11 10 8 8 8 8 8 8 7 6 6 5 5 4 4 4 4 3 3 3 3 3 4 3 4 4 4 4 5 5 4 4 4 4 3 3 3 2 2 2 2 2
13 13 12 10 9 9 9 9 9 8 8 7 6 6 6 5 5 4 4 3 3 3 3 3 3 3 4 4 5 6 6 5 6 6 6 5 4 3 3 2 2 2 2
12 14 14 12 10 9 9 10 9 8 8 7 6 6 5 6 6 5 4 4 4 4 4 4 4 4 4 4 4 5 6 7 7 8 8 7 5 4 3 2 2 2 2
10 12 13 13 11 9 9 9 8 8 8 6 5 5 5 5 6 5 4 4 5 6 6 5 5 5 4 4 3 3 5 6 7 7 8 7 5 4 3 2 1 1 1
9 10 12 12 11 10 9 9 9 9 8 6 6 6 6 6 6 5 5 4 4 4 5 5 4 4 4 3 2 2 3 4 5 5 6 6 5 4 3 2 1 1 1
12 12 12 10 8 8 9 10 10 10 8 7 6 6 6 6 6 5 5 5 4 4 4 4 3 3 3 2 1 2 3 3 3 4 4 4 4 3 2 1 1 1 1
15 14 12 9 8 8 10 11 11 10 8 7 6 6 6 6 5 5 5 5 5 4 4 4 4 3 3 2 1 2 3 3 3 3 3 3 3 2 1 1 1 1 1
14 14 12 9 8 9 10 11 10 8 7 6 6 6 6 5 5 5 5 5 5 5 5 5 4 3 3 3 2 2 3 3 3 2 2 2 1 1 0 0 1 1 1
14 14 12 10 9 9 10 9 8 7 6 6 6 5 5 5 5 5 5 5 5 5 5 5 5 4 4 3 2 1 2 2 2 2 2 2 1 1 0 0 0 0 0
14 14 12 10 9 9 9 8 7 7 8 8 7 6 5 4 4 5 5 6 5 5 5 6 6 5 5 3 2 2 1 1 1 1 2 2 1 1 0 0 0 0 0
15 15 14 12 10 9 9 8 8 9 9 9 8 7 6 5 5 5 5 5 6 5 6 7 7 6 5 4 3 2 2 1 1 1 1 1 1 1 1 0 0 0 0
17 17 17 15 13 11 9 8 8 9 10 10 10 10 9 8 7 6 5 5 5 5 5 7 7 7 5 4 3 2 2 1 1 1 1 2 2 2 1 1 1 0 0
16 18 19 19 16 13 10 9 9 9 10 11 12 12 11 10 8 7 6 5 4 4 4 6 7 8 6 4 2 2 1 1 1 1 2 2 2 2 2 2 1 1 1

GEFSMW_con_maxscp_264.txt.gz
SCP
1 1 1 1 1 1 1 1 1 2 3 3 3 4 5 6 6 7 9 9 9 8 7 4 2 2 2 2 1 1 1 0 0 0 0 0 0 0 0 0 0 0 0
1 1 1 1 1 1 1 1 2 2 3 3 3 4 5 7 8 8 10 10 9 7 5 3 2 2 2 2 1 1 0 0 0 0 0 0 0 0 0 0 0 0 0
1 1 1 1 1 1 1 1 2 2 2 2 2 3 5 6 8 8 8 7 7 5 3 2 2 2 2 2 1 1 0 0 0 0 0 0 0 0 0 0 0 0 0
1 1 1 1 1 2 2 2 2 2 2 2 2 2 3 5 5 5 4 3 3 2 2 1 1 2 2 1 1 1 0 0 0 0 0 0 0 0 0 0 0 0 0
1 1 1 1 2 2 3 3 3 3 2 2 2 2 3 3 3 3 2 2 2 2 1 1 1 1 1 1 1 0 0 0 0 1 1 0 0 0 0 0 0 0 0
1 1 2 2 3 4 3 3 3 2 2 2 2 3 3 3 3 2 2 2 1 1 1 1 1 1 1 1 0 0 0 0 1 1 1 1 1 1 0 0 0 0 0
2 2 2 3 4 4 4 3 3 3 2 2 3 3 3 3 2 2 2 1 1 1 1 0 0 0 0 0 0 0 0 0 1 1 1 1 1 1 1 1 0 0 0
3 3 3 4 4 5 4 4 4 3 3 4 4 4 4 3 2 1 1 1 1 1 1 0 0 0 0 0 0 0 0 0 1 1 1 1 1 1 1 1 1 1 1
4 4 4 4 4 4 4 4 4 4 4 4 5 4 4 2 2 1 1 1 1 1 0 0 0 0 0 0 0 0 0 1 1 1 1 1 1 1 1 1 1 1 1
4 4 3 3 3 4 4 4 3 3 4 4 4 4 3 2 1 1 1 1 1 1 1 0 0 0 1 1 1 0 0 1 1 1 1 1 1 1 1 2 2 2 2
5 4 4 4 4 4 4 3 3 3 3 3 3 3 2 2 1 1 1 1 1 1 1 1 1 1 1 1 1 1 1 1 1 1 1 1 1 1 1 2 2 2 2
5 5 5 5 4 4 4 4 4 3 3 3 3 3 2 2 1 1 1 2 2 1 1 1 1 1 1 1 1 1 1 1 1 1 1 1 1 1 2 2 3 3 3
6 6 6 5 4 5 5 5 5 4 3 3 3 3 2 2 2 2 2 2 2 2 2 1 1 1 1 2 2 1 1 1 1 2 2 2 2 2 2 2 3 3 3
6 6 5 4 4 5 6 6 6 4 4 3 3 3 3 3 3 3 2 2 2 2 2 2 2 2 2 2 2 2 2 2 2 2 2 2 2 2 2 3 3 3 4
6 5 4 3 3 5 7 7 7 5 4 3 3 3 3 3 3 3 3 3 3 3 3 3 3 3 3 3 3 3 3 2 2 2 2 2 2 2 2 2 3 3 4
4 4 3 3 3 6 8 8 8 6 4 3 3 3 3 3 3 3 4 4 4 3 3 4 4 4 3 2 2 2 2 2 2 2 2 2 3 2 2 2 2 2 3
3 3 2 3 4 6 8 8 8 7 5 4 3 4 4 3 3 4 5 5 5 5 5 4 4 4 3 2 1 1 2 2 2 2 2 3 2 2 2 2 2 2 2
2 2 2 3 4 6 7 8 8 7 6 4 4 4 5 4 4 4 6 7 7 7 7 6 5 4 3 1 1 1 1 2 2 2 2 2 2 2 2 2 2 2 2
2 2 2 3 4 6 7 7 8 8 6 4 4 5 5 4 3 3 5 7 8 8 9 8 6 4 3 1 0 1 1 2 2 2 2 2 1 1 1 1 1 2 2
2 2 2 3 4 6 7 7 8 8 6 4 4 4 4 4 3 2 3 5 7 8 8 7 5 3 2 1 1 1 2 3 3 2 2 1 1 1 0 1 1 1 1
2 2 2 3 4 6 8 8 8 7 6 5 4 4 5 4 3 3 3 4 5 6 6 5 4 3 3 2 1 1 2 3 3 2 2 1 1 0 0 0 1 1 1
3 2 2 3 5 7 9 9 8 8 7 6 4 4 4 5 5 4 4 4 4 4 4 4 4 4 3 2 2 1 1 2 3 3 2 2 1 1 0 0 0 0 0
3 2 3 4 6 8 9 9 9 9 8 7 5 4 4 4 5 5 5 5 4 4 4 4 4 4 4 3 2 1 1 1 2 2 2 1 1 1 0 0 0 0 0
3 4 4 6 8 9 10 10 10 10 9 7 6 5 4 4 4 4 5 5 4 4 4 4 5 5 5 4 4 3 2 2 2 2 2 1 1 1 1 1 1 0 0
4 5 7 8 9 10 10 9 9 9 9 7 7 6 5 5 4 4 4 4 5 5 5 5 5 5 5 5 5 4 3 3 2 2 2 2 2 2 2 2 1 1 1
5 6 8 9 10 9 8 8 8 9 8 7 7 6 6 5 4 4 4 4 4 5 5 5 5 5 5 5 4 3 3 2 2 2 3 3 3 3 2 2 2 2 1

GEFSMW_con_maxscp_270.txt.gz
SCP
2 1 1 2 2 3 4 5 6 8 9 9 8 6 5 4 3 4 4 4 4 3 4 4 4 3 3 3 2 2 2 3 3 3 4 4 3 2 2 2 2 2 2
2 2 2 2 2 3 4 6 7 8 9 9 8 7 6 5 4 4 4 4 3 3 3 3 2 2 2 2 2 2 2 2 2 2 3 3 2 2 1 1 1 1 1
2 2 2 2 2 3 5 6 8 9 10 10 9 8 7 6 5 4 4 4 3 2 2 2 1 1 2 2 1 1 1 1 1 1 1 1 1 1 1 1 1 1 1
2 2 2 2 3 3 4 6 8 11 12 11 10 8 7 6 5 5 5 4 3 2 2 1 1 1 1 1 1 1 1 1 1 1 1 1 1 1 1 1 1 1 1
2 2 3 3 3 3 4 6 9 11 13 12 11 9 7 7 6 6 6 5 3 2 2 1 1 1 1 1 1 1 1 1 1 1 1 1 1 1 1 1 1 1 1
2 2 3 3 3 3 4 5 8 11 13 12 11 10 8 7 7 6 5 4 3 2 1 1 1 1 1 1 1 2 2 2 1 1 1 1 1 1 1 1 1 1 1
2 2 3 3 3 3 4 6 8 11 12 13 12 11 9 8 7 6 4 3 2 2 1 1 1 1 1 1 1 2 2 2 2 2 2 2 2 1 1 1 1 1 1
2 2 3 3 4 5 6 8 9 11 12 13 13 12 10 8 6 5 3 2 1 1 1 1 1 1 1 1 1 2 2 3 3 2 2 2 2 1 1 1 1 1 1
3 3 4 5 6 7 9 10 11 12 12 13 13 12 11 9 6 4 3 2 2 1 1 1 1 1 1 1 1 1 2 2 2 2 2 2 2 1 1 1 1 1 1
3 4 5 6 7 8 10 11 11 12 13 13 12 11 10 9 7 4 3 3 2 2 2 2 2 2 2 1 1 1 1 1 2 2 2 2 2 2 2 2 2 2 2
3 3 5 6 7 8 9 9 10 12 13 13 12 11 10 9 7 5 3 3 2 2 2 3 3 3 2 2 2 2 2 1 2 2 2 2 3 3 3 3 3 3 3
3 4 5 7 8 8 7 7 9 11 13 13 13 12 10 9 7 4 3 2 2 2 2 3 3 3 3 3 3 3 2 2 2 2 2 3 3 4 5 5 5 5 5
4 5 6 7 7 7 5 5 7 9 12 13 13 12 11 9 6 4 3 2 2 2 2 3 3 3 3 3 3 3 3 2 2 2 2 3 4 5 5 6 5 5 6
4 5 5 5 5 5 5 5 5 7 11 13 13 12 11 9 6 4 3 2 2 2 2 2 3 3 3 3 3 3 3 3 3 3 3 3 4 5 5 5 5 5 5
4 4 5 5 5 5 6 6 6 6 9 13 13 12 11 8 6 4 3 3 3 3 2 2 3 3 3 3 2 2 2 3 3 3 3 3 4 4 3 3 4 4 5
3 4 6 7 7 6 7 8 7 7 9 12 13 11 10 7 5 4 3 3 3 3 3 3 3 3 3 2 2 2 2 3 3 3 3 3 3 3 2 2 2 3 3
3 3 5 6 7 7 7 7 7 7 8 11 12 10 8 6 4 4 4 4 4 4 4 4 4 4 4 3 2 2 2 3 3 3 3 3 3 3 3 3 2 2 3
2 3 3 5 6 7 7 5 5 5 7 9 10 8 6 5 5 5 6 6 5 5 5 5 5 5 5 4 2 2 3 4 4 4 3 3 3 4 5 5 4 3 3
2 2 3 5 7 8 6 4 4 5 6 7 7 7 6 6 6 6 7 8 7 7 7 6 6 6 6 4 3 2 4 6 6 5 4 4 4 4 5 5 5 4 4
2 2 4 6 9 8 6 5 5 5 5 6 6 7 7 7 6 6 6 8 9 8 8 7 7 6 6 5 3 3 5 7 7 7 6 5 4 4 4 5 5 5 5
3 3 5 8 10 8 6 5 6 6 6 6 6 7 8 8 8 7 7 7 8 8 8 7 7 6 6 5 3 3 5 7 8 9 9 7 4 2 2 3 4 4 4
4 4 7 9 9 7 6 7 7 7 6 6 6 7 9 9 10 10 10 9 8 8 7 7 6 6 6 5 4 3 3 5 7 9 10 9 4 1 1 1 2 2 2
4 6 7 8 8 6 6 7 7 7 7 6 6 7 9 10 11 13 13 12 11 10 8 6 6 6 6 6 5 4 3 3 5 7 8 7 3 1 1 1 1 1 2
5 6 7 8 7 6 6 7 7 7 7 7 8 9 10 10 12 14 15 14 13 12 11 9 9 9 8 7 6 6 5 4 4 5 6 4 3 3 3 3 3 3 4
6 7 7 7 8 8 8 7 8 8 9 10 11 11 11 11 13 16 16 13 11 11 11 11 10 9 7 6 5 6 6 6 5 6 6 5 5 5 6 6 6 6 6
7 7 7 7 9 10 10 8 8 9 10 12 13 12 10 11 14 18 17 12 9 8 9 9 8 7 5 4 3 4 4 5 5 6 7 7 7 7 7 7 7 7 7

GEFSMW_con_maxscp_276.txt.gz
SCP
2 2 2 2 3 5 7 9 9 10 10 9 7 6 5 4 4 5 6 6 5 4 3 3 3 3 2 2 2 2 1 1 1 1 2 2 2 2 2 2 2 3 3
3 3 3 3 3 5 7 9 9 10 11 10 8 7 6 5 5 5 6 6 6 5 4 3 3 3 2 2 2 2 1 1 1 1 1 1 1 1 2 2 2 3 3
3 3 3 4 4 5 6 8 10 12 12 11 9 8 7 6 6 5 6 6 6 5 4 3 3 3 2 2 2 2 1 1 1 1 1 1 1 1 2 2 2 3 3
3 3 3 4 5 4 5 7 10 13 14 12 10 9 8 7 6 6 6 6 5 4 4 3 3 3 2 2 2 2 2 1 1 1 2 2 2 2 2 2 2 2 3
3 3 3 4 5 5 5 7 10 13 13 12 10 8 7 7 7 7 6 5 4 3 3 3 3 3 2 1 2 2 2 2 2 2 2 2 2 2 2 2 2 2 3
3 4 4 4 5 6 7 9 11 12 11 10 9 8 8 8 7 7 7 5 4 3 3 2 2 2 2 1 1 2 2 3 3 3 3 3 2 2 2 2 2 2 2
3 4 5 6 7 9 10 13 15 14 12 11 12 12 12 10 9 8 7 6 5 4 3 2 2 2 2 1 1 2 2 3 3 3 3 3 2 2 2 2 2 2 2
3 5 7 8 10 12 14 16 17 17 15 15 16 16 15 13 10 9 8 6 5 4 3 3 3 3 2 2 2 2 2 3 3 3 3 3 3 2 2 2 2 2 1
4 6 8 10 11 13 14 14 14 14 15 15 15 15 14 12 10 9 7 6 5 4 4 4 4 4 3 3 3 3 4 4 4 4 4 4 3 3 2 2 2 2 1
5 5 6 8 10 11 11 10 9 10 11 12 11 10 9 8 8 8 8 7 6 5 5 5 5 6 5 4 4 4 5 5 5 5 5 5 4 3 3 3 2 2 2
5 5 5 6 8 10 10 8 7 7 8 9 8 7 7 6 7 8 10 9 7 6 6 6 7 7 6 5 5 5 5 5 5 5 5 5 5 4 4 3 3 3 2
5 6 6 7 8 10 10 9 8 7 7 8 8 8 7 7 6 7 10 10 8 6 6 7 8 7 7 6 5 5 5 5 5 5 5 5 5 5 4 4 4 3 3
5 6 7 8 9 10 11 11 10 9 7 8 8 9 9 8 7 7 9 10 9 8 7 8 8 8 7 6 6 6 6 6 6 6 6 5 5 6 6 5 5 4 4
5 6 8 9 10 10 12 12 12 10 8 7 8 9 10 9 8 7 8 9 9 8 8 8 8 8 7 7 7 8 8 7 7 7 7 6 6 6 6 6 5 5 4
6 7 8 10 10 11 11 11 11 11 9 8 8 10 11 10 9 8 8 9 9 8 8 9 9 9 8 7 7 8 8 9 8 8 8 8 7 6 5 5 4 4 4
9 9 9 10 11 12 12 11 10 11 10 9 9 10 10 10 8 8 8 8 9 8 8 9 9 9 8 7 5 6 7 9 9 9 9 9 7 6 5 4 3 3 3
12 10 10 11 13 15 15 13 12 11 11 11 11 10 10 8 7 7 7 8 8 8 9 10 10 10 8 6 4 4 6 8 9 10 10 10 9 8 8 7 5 3 3
12 10 10 12 16 19 18 17 15 14 14 13 12 11 10 8 7 6 7 7 8 9 10 11 11 11 9 6 4 3 4 6 8 9 9 9 9 9 10 9 8 6 5
9 8 8 11 15 19 19 17 16 16 16 16 14 12 11 9 8 8 8 8 8 9 9 9 10 10 10 7 4 3 5 6 7 7 8 8 8 8 8 9 8 7 7
7 7 7 9 12 15 16 15 14 14 15 15 14 13 12 11 10 10 10 10 10 10 10 8 8 9 9 7 4 3 6 7 7 7 7 6 6 6 6 6 7 7 7
7 8 9 9 10 12 15 15 13 11 11 12 12 12 12 12 12 13 14 13 13 13 12 10 8 9 9 6 3 3 5 6 7 7 6 6 5 4 3 4 5 5 5
8 9 10 10 11 13 16 17 14 10 9 9 10 10 10 10 11 14 15 16 15 15 13 11 10 10 9 7 3 2 3 4 5 6 5 5 3 2 2 2 3 4 4
8 10 10 10 12 15 17 18 15 11 9 9 9 9 8 8 10 13 15 15 15 13 12 11 11 11 10 8 5 2 1 2 3 4 4 3 2 2 1 1 2 2 2
7 9 10 10 12 16 18 19 16 12 11 10 10 9 9 8 10 11 12 13 13 12 11 11 11 11 12 12 7 3 1 1 2 2 3 2 2 2 2 2 2 3 3
6 7 8 10 12 15 19 21 18 14 12 11 11 10 9 9 10 11 10 10 10 10 9 10 10 10 12 12 9 5 3 2 2 2 2 2 2 3 5 5 5 5 5
7 6 7 9 12 15 19 23 21 15 12 11 11 11 10 9 10 11 10 8 7 7 7 8 9 9 10 10 8 6 4 2 2 2 3 3 3 4 7 9 8 7 7

GEFSMW_con_maxscp_282.txt.gz
SCP
1 1 1 2 2 3 3 3 4 4 4 4 4 3 2 2 2 2 2 3 4 5 4 3 2 1 1 1 1 1 1 0 0 0 0 0 0 0 0 1 1 1 1
1 1 2 2 2 3 3 4 4 5 5 4 4 3 2 2 2 3 3 4 5 6 4 2 1 1 1 1 1 1 1 1 1 1 1 0 0 0 0 0 1 1 1
1 1 2 2 3 3 4 4 5 5 5 4 4 3 3 3 3 3 4 6 7 6 3 2 1 1 1 1 1 1 1 2 2 1 1 1 1 1 0 0 1 1 1
2 2 2 2 3 3 4 4 4 4 4 4 5 5 4 4 4 4 6 7 7 5 3 1 1 1 1 1 1 1 2 2 2 2 2 2 2 1 1 1 1 1 1
4 4 4 4 4 4 5 5 5 5 6 6 6 6 5 5 5 6 8 8 6 4 2 1 1 1 1 1 1 1 1 2 2 2 3 3 3 2 2 1 1 1 1
7 8 7 7 6 6 7 8 8 8 7 7 7 6 5 5 5 6 7 6 4 3 2 1 1 1 1 1 1 1 1 2 2 2 3 3 3 3 3 2 2 1 1
8 7 7 7 7 7 7 8 8 7 6 6 5 5 4 4 4 4 4 4 3 3 2 1 1 1 1 1 1 1 1 2 2 3 3 3 3 3 3 3 2 2 1
6 5 4 5 5 5 6 5 5 4 4 3 3 3 2 2 2 2 3 3 3 3 2 1 1 1 1 1 1 1 1 2 2 3 3 3 4 4 4 3 3 2 2
7 5 4 4 4 5 5 5 4 4 4 3 2 2 1 1 1 1 2 2 3 3 2 2 1 1 1 1 1 1 2 2 2 3 3 3 4 4 4 3 3 3 2
8 7 5 4 4 5 5 5 4 4 4 3 2 1 1 1 1 1 1 2 2 2 2 2 1 1 1 2 2 2 2 2 3 3 3 3 4 4 4 4 4 3 3
8 8 6 5 5 5 5 5 5 4 4 3 3 2 1 1 1 1 2 2 2 2 2 2 2 2 2 2 2 2 3 3 3 4 4 4 5 5 5 5 5 4 4
6 8 8 6 5 6 6 6 5 5 4 4 3 2 2 2 2 2 2 2 2 2 2 2 2 2 2 3 3 3 3 3 4 4 5 5 6 6 6 6 6 6 6
7 9 10 8 7 6 7 6 6 5 5 4 4 3 3 3 3 3 3 3 3 3 3 3 3 4 4 4 4 5 5 5 5 5 5 5 5 6 6 7 7 7 7
7 10 11 9 8 8 8 8 7 6 6 5 4 4 4 4 5 5 5 5 4 4 3 4 4 5 5 5 5 6 6 6 5 5 5 5 5 5 6 7 7 7 7
8 9 9 7 7 8 9 9 9 8 7 6 5 4 4 5 5 6 7 6 5 4 4 4 4 4 4 5 5 5 5 5 5 4 4 4 5 5 5 5 6 6 7
7 8 7 5 5 6 8 10 11 10 9 7 6 5 5 5 5 7 8 8 6 5 4 3 3 3 3 3 4 4 4 4 3 3 3 4 4 4 4 4 4 4 5
7 7 6 4 3 4 5 8 10 11 10 8 8 8 7 6 6 7 8 8 7 6 5 4 3 3 3 3 3 4 4 4 3 3 3 3 4 4 4 3 3 3 3
5 6 5 3 3 3 4 7 9 9 9 9 10 11 11 9 8 8 8 8 7 6 5 5 5 5 5 4 3 2 3 3 3 3 3 3 4 3 3 3 2 2 2
5 6 6 5 4 4 6 7 8 8 8 9 10 11 13 13 11 9 8 8 7 6 6 6 6 6 6 4 2 2 2 2 3 3 3 3 3 2 2 2 2 2 2
8 8 9 8 7 7 8 9 8 7 7 7 8 9 12 14 14 12 10 9 7 6 6 6 6 6 5 4 2 2 2 2 2 2 3 2 2 1 1 1 1 1 1
9 9 9 9 8 9 10 10 9 7 6 7 7 8 10 14 15 13 11 10 8 7 7 6 5 4 4 3 2 2 2 2 3 3 3 2 2 1 1 1 1 1 1
10 9 9 8 7 8 10 10 8 7 7 7 8 8 8 10 11 11 10 9 8 7 7 7 6 5 4 4 3 2 2 3 4 4 4 3 2 1 0 1 1 1 1
10 9 9 8 7 7 8 8 8 7 8 8 9 9 9 8 8 8 8 7 6 7 7 8 8 7 6 6 5 3 2 2 3 4 4 3 1 0 0 0 0 0 0
8 8 8 8 8 8 8 7 7 8 8 8 9 10 10 10 9 9 8 8 7 8 8 9 9 9 9 8 8 6 4 2 2 2 2 1 1 0 0 0 0 0 1
6 6 8 9 8 8 8 7 7 8 7 7 7 8 8 9 9 9 9 9 9 9 8 8 9 10 10 9 8 8 5 3 2 1 1 1 0 0 0 0 0 1 1
5 6 8 10 9 8 7 7 8 8 7 7 6 6 6 6 7 8 8 8 8 8 7 6 7 9 9 8 7 6 5 3 2 2 2 1 1 1 1 1 1 1 1

GEFSMW_con_maxscp_288.txt.gz
SCP
1 0 0 0 0 0 0 0 1 1 1 2 2 2 2 2 2 2 1 2 3 4 5 4 2 2 1 1 1 1 1 1 1 1 0 0 0 0 1 1 1 1 1
0 0 0 0 0 0 0 1 1 1 1 2 3 2 2 2 2 2 2 2 3 5 5 3 2 1 1 1 1 1 1 1 1 1 1 1 1 1 1 1 1 1 1
0 0 1 0 0 0 1 1 1 2 3 3 4 3 2 2 2 2 2 3 4 5 4 2 1 1 1 1 1 1 1 1 1 1 1 1 1 1 1 1 1 1 1
1 1 1 1 1 1 1 2 2 3 4 4 4 3 3 2 2 2 3 3 4 3 2 2 1 1 1 1 1 1 1 2 2 1 1 1 2 2 2 2 2 1 1
1 1 1 1 1 1 1 2 2 3 3 4 4 3 3 3 3 3 2 3 3 2 2 1 1 1 1 1 1 1 1 1 2 2 2 2 2 2 2 2 2 2 1
3 2 2 2 2 2 1 1 2 2 3 3 2 2 2 3 2 2 2 2 2 1 2 2 1 1 1 1 1 1 1 1 1 2 2 2 2 2 3 3 3 2 2
4 4 3 3 2 2 1 1 1 2 2 2 2 2 2 2 2 1 1 1 1 1 1 1 2 1 1 1 1 1 1 1 1 1 2 2 2 3 3 4 3 3 2
6 5 4 4 3 2 2 1 1 1 1 1 1 1 2 1 1 1 1 1 0 0 1 1 1 1 1 1 0 1 1 1 1 1 2 2 2 3 4 5 5 3 3
7 6 5 4 2 1 2 2 2 1 1 1 1 1 1 1 1 1 1 1 1 0 0 1 1 1 1 1 1 1 1 1 2 2 2 3 3 3 4 6 6 5 4
8 7 5 3 1 1 2 2 3 2 2 1 1 1 1 1 1 1 1 1 1 1 1 1 1 1 1 1 1 2 2 2 3 3 4 4 4 4 5 6 7 7 6
8 6 4 2 1 1 2 3 3 3 2 2 1 1 1 1 1 1 1 1 1 1 1 1 1 1 2 2 2 2 3 4 4 5 5 5 5 5 5 5 6 6 6
7 5 3 2 1 1 1 3 4 4 4 3 2 1 1 1 1 1 1 1 1 1 1 1 2 2 2 2 3 3 3 4 5 5 5 4 4 4 4 4 4 5 5
5 4 2 2 1 1 2 2 4 5 5 4 3 2 2 1 1 1 1 1 1 1 1 2 2 2 2 3 3 3 3 4 4 4 4 3 3 3 3 3 3 3 3
3 3 2 1 1 2 2 2 4 5 6 5 4 3 2 1 1 2 2 1 1 1 2 2 2 2 3 3 3 3 3 4 4 4 4 3 3 3 3 3 3 3 3
3 2 2 1 1 2 2 3 4 5 6 6 5 4 3 2 2 2 2 2 2 2 2 2 2 3 3 3 3 3 4 5 5 4 3 3 3 2 2 2 2 2 2
2 2 2 2 2 2 2 3 5 7 7 7 5 5 4 2 2 2 2 2 2 2 2 3 3 3 3 3 2 3 4 5 5 4 3 2 2 2 2 2 1 1 1
2 2 2 2 2 2 3 4 7 8 8 7 6 5 4 3 2 2 2 3 3 3 3 3 3 3 3 2 2 2 3 4 4 4 3 3 2 2 2 2 1 1 1
2 2 2 3 2 3 3 5 8 10 9 8 7 6 5 4 3 3 3 3 3 3 3 3 3 4 3 2 2 2 2 3 4 4 3 3 3 3 2 2 2 1 1
2 2 2 3 3 3 4 6 8 10 10 9 8 7 5 4 4 3 3 3 4 4 4 4 4 5 4 3 2 2 2 3 3 3 3 3 3 3 2 3 3 2 2
1 2 2 3 4 5 6 6 7 9 10 10 9 8 6 4 4 4 3 4 4 5 5 5 5 5 5 4 3 2 3 3 3 3 3 3 3 2 2 3 3 3 2
2 2 3 3 5 7 8 7 6 7 9 9 8 7 6 5 4 4 4 4 4 4 4 4 4 5 4 4 3 2 2 3 4 4 4 4 3 1 1 2 3 2 2
3 3 3 4 6 8 9 8 6 6 8 8 7 6 6 6 5 4 4 4 4 3 3 3 3 4 4 4 3 2 2 3 4 5 5 4 3 1 0 1 1 2 1
5 5 5 5 6 8 9 8 7 7 7 7 7 6 6 6 5 5 5 4 4 4 3 3 3 3 3 3 3 2 1 1 3 4 5 4 2 1 1 1 1 1 1
7 7 7 7 7 7 8 8 7 7 7 7 7 7 6 5 5 5 5 5 4 4 3 3 2 2 2 2 2 2 1 1 1 2 3 3 2 2 2 2 2 3 4
8 9 9 9 8 8 8 7 7 6 7 7 7 7 6 6 5 5 4 4 3 3 2 2 2 2 1 1 1 1 1 1 1 1 2 3 3 4 5 5 5 6 7
7 9 10 10 10 9 7 6 6 6 6 7 7 7 7 6 5 4 3 2 2 1 1 1 1 1 1 1 0 0 1 1 1 1 2 3 4 6 7 7 7 7 8

GEFSMW_con_maxscp_294.txt.gz
SCP
1 1 1 0 1 1 1 2 3 4 4 5 5 5 4 4 3 3 3 3 3 3 3 4 4 4 4 3 3 2 2 2 2 2 2 1 1 1 1 1 1 1 1
1 1 1 1 1 1 1 2 2 3 4 4 5 5 5 4 4 4 4 3 4 4 4 4 5 4 4 3 3 2 2 2 2 2 2 2 2 1 1 1 1 2 2
1 1 1 1 1 1 1 1 2 2 3 4 4 4 5 5 4 4 4 4 5 5 5 5 5 4 4 4 3 2 2 2 2 2 2 2 2 2 2 1 2 2 2
1 1 1 1 1 1 1 2 2 3 4 4 4 4 4 4 4 4 4 5 5 5 5 5 5 4 4 3 3 3 2 2 2 2 2 3 3 3 3 2 2 2 3
1 1 1 1 1 1 2 3 4 5 5 4 4 4 4 3 3 4 5 5 6 5 5 5 4 4 3 3 3 3 3 3 3 3 3 4 4 5 4 4 3 3 3
1 1 1 2 2 2 3 5 6 6 5 4 4 4 3 3 3 4 4 5 6 5 4 4 3 3 3 3 3 3 4 4 4 4 4 4 5 6 6 6 6 5 4
1 1 2 3 4 4 5 6 7 7 5 4 4 4 3 3 3 3 4 5 5 5 4 3 3 3 2 2 2 3 4 5 5 6 5 5 5 6 7 9 8 7 6
1 1 2 4 5 5 5 6 6 6 5 4 4 4 3 3 3 3 3 4 4 4 3 3 2 2 2 2 2 3 4 5 5 5 5 5 5 6 7 9 9 7 6
1 2 3 4 5 5 5 5 5 5 4 5 4 4 3 3 3 3 3 3 3 3 2 2 2 2 2 3 3 4 4 4 5 5 5 6 6 7 7 8 7 6 6
2 3 4 6 5 5 4 4 4 4 4 4 5 4 3 3 3 3 3 2 2 2 2 2 2 2 3 3 4 4 3 4 5 5 6 6 7 7 7 6 5 5 5
2 4 7 7 5 4 3 3 3 3 3 4 5 5 4 4 4 3 2 2 2 2 2 2 3 3 3 3 3 3 3 3 4 4 4 5 5 5 5 5 4 4 4
3 6 8 7 4 3 2 2 2 3 3 3 4 5 5 5 4 3 2 2 2 2 2 3 3 3 3 3 2 2 2 3 3 3 3 4 5 5 5 4 4 3 3
4 7 7 5 3 2 2 2 2 3 2 3 3 5 5 5 4 3 3 2 2 2 2 2 2 2 2 2 2 2 2 3 3 4 4 5 5 5 5 5 4 3 3
4 5 5 4 3 3 3 3 3 3 3 3 4 5 5 5 5 4 4 3 3 2 2 2 2 2 2 2 2 2 3 3 4 5 5 5 5 5 5 5 4 4 3
4 4 4 4 4 3 3 3 3 3 3 4 4 4 4 5 4 5 5 4 4 3 3 3 3 2 2 2 2 2 3 4 5 5 5 5 5 4 4 4 4 4 4
4 4 5 4 4 3 3 4 4 4 4 4 4 4 4 4 5 5 5 5 5 4 4 4 4 4 3 3 2 3 4 5 6 6 6 6 5 4 4 4 3 3 3
4 4 4 4 4 3 4 4 4 4 4 4 5 4 4 4 5 5 6 6 6 6 6 6 6 6 5 4 3 2 4 6 7 7 7 6 5 5 5 4 3 3 3
3 3 4 4 4 4 4 5 5 5 5 5 5 5 5 6 6 7 8 9 9 8 8 7 7 7 6 5 2 2 4 6 8 8 8 7 6 6 5 5 4 4 5
3 3 3 4 4 5 5 6 6 6 7 7 7 7 8 8 10 12 13 13 11 9 8 8 8 8 7 4 2 2 4 7 8 9 8 7 6 6 5 5 5 6 6
4 4 4 3 4 5 6 7 8 8 8 8 9 9 10 12 15 18 18 15 12 11 10 8 8 8 7 4 2 2 4 7 8 8 7 6 5 4 4 4 6 6 7
5 4 4 3 3 4 6 8 8 8 8 9 11 12 14 16 20 23 21 16 13 12 11 10 10 9 8 5 3 2 3 5 6 7 7 6 4 3 2 3 5 5 5
6 5 5 4 3 4 6 7 7 7 9 10 13 15 17 19 23 23 19 15 13 13 13 13 12 11 8 5 3 1 1 2 4 5 6 5 3 2 1 1 2 3 3
7 6 5 4 4 4 5 6 7 8 9 12 14 17 20 21 20 17 14 13 13 13 13 13 12 11 8 5 3 1 0 1 2 3 4 3 2 1 1 1 1 2 2
7 6 5 4 5 5 6 7 8 9 11 13 15 17 18 17 14 12 11 11 12 12 12 11 10 9 7 6 4 3 2 2 2 3 3 2 2 1 2 2 2 3 4
7 6 6 6 7 8 8 9 10 11 12 13 14 15 13 12 10 9 9 9 9 9 9 8 7 6 5 4 4 5 4 3 3 3 4 4 3 3 3 3 3 4 4
7 7 8 8 9 10 11 11 11 12 12 12 13 13 12 10 9 9 8 7 6 5 5 6 5 4 4 3 3 4 3 3 3 4 5 5 4 3 3 3 4 4 4